Regional Weather Roundup
Issued by NWS

Home | Current Version | Previous Version | Graphics & Text | Print | Product List | Glossary On
Versions: 1 2 3 4 5 6 7 8 9 10 11 12 13 14 15 16 17 18 19 20 21 22 23 24 25 26 27
000
ASUS45 KBOU 250007
RWRCO

WEATHER ROUNDUP FOR COLORADO
NATIONAL WEATHER SERVICE DENVER/BOULDER CO
600 PM MDT TUE MAY 24 2016

NOTE: "FAIR" INDICATES FEW OR NO CLOUDS BELOW 12000 FEET WITH NO
SIGNIFICANT WEATHER AND/OR OBSTRUCTIONS TO VISIBILITY.

COZ001>005-013-030-031-250100-
...NORTHWEST COLORADO...

CITY           SKY/WX    TMP DP  RH WIND       PRES   REMARKS
CRAIG          FAIR      70  25  18 SW18G29   29.84S
HAYDEN         FAIR      64  21  19 SW17G29   29.86S
MEEKER         FAIR      68  20  16 S17G30    29.86S
MOUNT WERNER   NOT AVBL
STEAMBOAT SPGS FAIR      67  21  17 SW15G23   29.87S
WALDEN         PTSUNNY   61  14  16 SW23G29   29.94F
$$

COZ006>008-011-250100-
...WEST CENTRAL VALLEYS...

CITY           SKY/WX    TMP DP  RH WIND       PRES   REMARKS
GRAND JUNCTION FAIR      75  15  10 S23       29.80F
MONTROSE       FAIR      74  12   9 SW23G30   29.88S
EAGLE          SUNNY     70  19  14 SW18G26   29.90R
RIFLE          FAIR      74  14  10 SW24G30   29.82F
DELTA          FAIR      78  10   7 SW29G40   29.84R
NUCLA          FAIR      72  10   9 SW22G37   29.94S
$$

COZ017>023-064>068-250100-
...SOUTHWEST COLORADO...

CITY           SKY/WX    TMP DP  RH WIND       PRES   REMARKS
DURANGO        FAIR      70  12  10 W17G29    29.98S
CORTEZ         FAIR      73  12   9 SW18G25   29.94F
PAGOSA SPRINGS FAIR      67   7   9 SW14G22   30.04S
TELLURIDE      FAIR      57   7  13 S15G32    30.09S
WOLF CREEK PAS FAIR      41  14  33 SW25G46   30.26S
$$

COZ009-010-012-014-032>034-037-058>063-250100-
...CENTRAL COLORADO...

CITY           SKY/WX    TMP DP  RH WIND       PRES   REMARKS
ASPEN          FAIR      62  22  21 S14G24    29.98S
BUENA VISTA    FAIR      65  10  11 S12G23    29.97R
COPPER MTN     NOT AVBL
BERTHOUD PASS  FAIR      39  30  70 W6G22     30.21R
COTTONWOOD PAS PTSUNNY   59   0   9 S15       30.08S
GUNNISON       FAIR      64  12  13 W21G30    30.00R
KREMMLING      FAIR      70  14  11 W22G29    29.91S
LEADVILLE      FAIR      55  11  17 W20G29    30.06R
MONARCH PASS   CLOUDY    43  14  31 SW33G53   30.31R
SALIDA         FAIR      70   8   9 SW12G24   30.03R
SUNLIGHT       FAIR      50  23  34 S5        30.13F
WILKERSON PASS CLOUDY    48  12  23 SW7       30.17S
$$

COZ069>075-250100-
...SAN LUIS VALLEY/SANGRE DE CRISTO MOUNTAINS...

CITY           SKY/WX    TMP DP  RH WIND       PRES   REMARKS
ALAMOSA        FAIR      68  19  15 SW24G35   30.00R
LA VETA PASS   CLOUDY    57  19  23 SW6G24    30.14F
SAGUACHE       FAIR      66  19  16 SW22G31   30.01S
$$

COZ035-036-038>040-250100-
...NORTHERN COLORADO FRONT RANGE...

CITY           SKY/WX    TMP DP  RH WIND       PRES   REMARKS
DENVER INTL AP PTSUNNY   67  50  54 E14G23    29.82F
DMNS CITY PARK   N/A     70  44  40 NE12G18   29.82S
AURORA         PTSUNNY   65  50  57 NE8       29.84R
FRONT RANGE AP PTSUNNY   66  54  63 NE18      29.83F
ERIE MUNI ARPT FAIR      66  48  53 NE8       29.82S
BOULDER MUN AP FAIR      68  43  40 NE6       29.82F
CENTENNIAL     PTSUNNY   67  43  41 N10       29.83S
BROOMFIELD     PTSUNNY   66  48  52 N6        29.86R
FORT COLLINS   FAIR      70  48  46 NE9       29.85R
LONGMONT       FAIR      72  45  38 E9        29.84R
$$

COZ041-046-047-076>085-087-088-250100-
...PIKES PEAK/PALMER DIVIDE AND SOUTHERN FOOTHILLS...

CITY           SKY/WX    TMP DP  RH WIND       PRES   REMARKS
COLO. SPRINGS  FAIR      73  32  22 S20       29.88F
A. F. ACADEMY  FAIR      72  36  26 SE20      29.88F
SCHRIEVER AFB  NOT AVBL
ELLICOTT       FAIR     N/A N/A N/A S22G29    29.86F
FALCON         FAIR      67  33  27 S9        29.93F
FORT CARSON    FAIR      73  35  25 S17       29.83F
LIMON          FAIR      75  33  21 S18G36    29.82F
MONUMENT HILL  FAIR      63  34  34 S22G28    29.92F
TRINIDAD       FAIR      80  17   9 W16       29.84S
$$

COZ042>045-048>051-090-091-250100-
...NORTHEAST COLORADO...

CITY           SKY/WX    TMP DP  RH WIND       PRES   REMARKS
GREELEY ARPT   FAIR      66  46  48 E14       29.82F
AKRON          FAIR      67  55  65 NE9       29.81F THUNDER
BURLINGTON     FAIR      78  58  49 SE20      29.79F
WRAY           FAIR      73  55  53 SE15G23   29.79F
STERLING       CLOUDY    63  50  63 W16G24    29.84R
HOLYOKE        FAIR      73  55  53 SE15G22   29.81F
FORT MORGAN    PTSUNNY   66  39  36 NW3       29.82F
$$

COZ086-089-092>099-250100-
...SOUTHEAST COLORADO...

CITY           SKY/WX    TMP DP  RH WIND       PRES   REMARKS
PUEBLO         FAIR      82  32  16 SE17G24   29.77F
LA JUNTA       FAIR      84  39  20 E10       29.73F
LAMAR          FAIR      87  42  20 SE16G23   29.70F
SPRINGFIELD      N/A     84  27  12 S22G29    29.78F
$$




USA.gov is the U.S. government's official web portal to all federal, state and local government web resources and services.